Location: Avully
(45.9633°N, 6.0228°E)
Time: 19:57:09
(UTC+00:00)

ATLAS CENTAUR R/B - Pass Details

Date: 23 May 2024
Orbit: 209 x 2392 km, 57.2° (Epoch: 14 June)

Event Time Altitude Azimuth Distance (km) Brightness Sun altitude
Rises 00:10:48 0° 311° (NW) 6,087 7.5 -22.8°
Reaches altitude 10° 00:15:00 10° 309° (NW) 4,977 7.0 -22.7°
Maximum altitude 00:28:18 61° 235° (SW) 2,074 4.4 -22.2°
Enters shadow 00:33:53 28° 167° (SSE) 2,574 4.7 -22.0°
